Regional Weather Roundup
Issued by NWS

Home | Current Version | Previous Version | Text Only | Print | Product List | Glossary Off
Versions: 1 2 3 4 5 6 7 8 9 10 11 12 13 14 15 16 17 18 19 20 21 22 23 24 25 26 27 28 29 30 31 32 33 34 35 36 37 38 39 40 41 42 43 44 45 46 47 48 49 50

000
ASUS43 KMKX 301818
RWRWI

WISCONSIN REGIONAL WEATHER ROUNDUP
NATIONAL WEATHER SERVICE MILWAUKEE/SULLIVAN WI
100 PM CDT SAT MAY 30 2015

NOTE: "FAIR" INDICATES FEW OR NO CLOUDS BELOW 12,000 FEET WITH NO
SIGNIFICANT WEATHER AND/OR OBSTRUCTIONS TO VISIBILITY.

WIZ001-002-006>008-014>016-023>028-301900-
NORTHWEST WISCONSIN

CITY           SKY/WX    TMP DP  RH WIND       PRES   REMARKS
SUPERIOR ARPT  SUNNY     53  36  53 NE9       30.30S
6HR MIN TEMP:  45; 6HR MAX TEMP:  54;

ASHLAND        SUNNY     51  38  60 E10       30.31R
6HR MIN TEMP:  47; 6HR MAX TEMP:  53;

HAYWARD        CLOUDY    52  38  58 NE16      30.27R
6HR MIN TEMP:  47; 6HR MAX TEMP:  52;

SIREN          PTSUNNY   56  39  52 NE6       30.26S
6HR MIN TEMP:  45; 6HR MAX TEMP:  57;

CUMBERLAND     CLOUDY    52  41  66 NE13      30.25R
RICE LAKE      CLOUDY    54  41  61 N14       30.26R
6HR MIN TEMP:  47; 6HR MAX TEMP:  54;

CHETEK         CLOUDY    53  44  72 N7G16     30.24S
6HR MIN TEMP:  48; 6HR MAX TEMP:  53;

LADYSMITH      CLOUDY    54  44  69 NE12      30.25S
6HR MIN TEMP:  49; 6HR MAX TEMP:  54;

EAU CLAIRE     CLOUDY    55  45  68 N14       30.21R
6HR MIN TEMP:  51; 6HR MAX TEMP:  56;

MENOMONIE      CLOUDY    57  45  63 N10       30.23R
6HR MIN TEMP:  51; 6HR MAX TEMP:  57;

NEW RICHMOND   CLOUDY    57  44  61 N12G18    30.24S
6HR MIN TEMP:  46; 6HR MAX TEMP:  57;

OSCEOLA        CLOUDY    57  43  59 N8G18     30.28S
6HR MIN TEMP:  45; 6HR MAX TEMP:  58;

$$

WIZ003>005-009-010-017-018-301900-
NORTH CENTRAL WISCONSIN

CITY           SKY/WX    TMP DP  RH WIND       PRES   REMARKS
MANITOWISH WTR CLOUDY    47  42  83 N10       30.25R
6HR MIN TEMP:  45; 6HR MAX TEMP:  48;

ARBOR VITAE    PTSUNNY   52  43  73 N10       30.23S
6HR MIN TEMP:  48; 6HR MAX TEMP:  52;

WOODRUFF       PTSUNNY   52  43  73 N10       30.23S
6HR MIN TEMP:  48; 6HR MAX TEMP:  52;

RHINELANDER    CLOUDY    50  42  74 NE12G17   30.22R
6HR MIN TEMP:  48; 6HR MAX TEMP:  53; 6HR PCP: TRACE;

EAGLE RIVER    CLOUDY    47  40  76 N9G18     30.23R
6HR MIN TEMP:  46; 6HR MAX TEMP:  50;

LAND O LAKES   CLOUDY    48  42  80 N12       30.24S
6HR MIN TEMP:  45; 6HR MAX TEMP:  48; 6HR PCP:  0.02;

PHILLIPS       CLOUDY    51  44  77 N12G24    30.23R
6HR MIN TEMP:  47; 6HR MAX TEMP:  51;

TOMAHAWK       CLOUDY    52  45  75 NE9       30.23R
6HR MIN TEMP:  48; 6HR MAX TEMP:  53;

MEDFORD        CLOUDY    54  47  75 NE12      30.19R
6HR MIN TEMP:  49; 6HR MAX TEMP:  55;

MERRILL        CLOUDY    56  45  66 NE7       30.20R
$$

WIZ029-030-035-036-043>047-301900-
CENTRAL WISCONSIN

CITY           SKY/WX    TMP DP  RH WIND       PRES   REMARKS
WAUSAU         CLOUDY    57  44  62 NE9G21    30.17R
6HR MIN TEMP:  53; 6HR MAX TEMP:  58; 6HR PCP: TRACE;

MOSINEE        CLOUDY    55  46  71 NE14G20   30.18R
MARSHFIELD     CLOUDY    57  47  69 E10       30.17R
6HR MIN TEMP:  53; 6HR MAX TEMP:  58; 6HR PCP: TRACE;

STEVENS POINT  CLOUDY    53  48  83 NE7       30.18R
6HR MIN TEMP:  51; 6HR MAX TEMP:  53; 6HR PCP:  0.06;

WAUPACA        CLOUDY    58  49  74 NE8       30.17S
6HR MIN TEMP:  54; 6HR MAX TEMP:  58; 6HR PCP:  0.32;

WAUTOMA        CLOUDY    53  50  90 E12       30.18R
6HR MIN TEMP:  52; 6HR MAX TEMP:  54; 6HR PCP:  0.26;

WISC RAPIDS    CLOUDY    56  47  71 NE9       30.18R
6HR MIN TEMP:  55; 6HR MAX TEMP:  57; 6HR PCP:  0.03;

CAMP DOUGLAS   CLOUDY    55  55 100 NE7       30.15R
6HR MIN TEMP:  54; 6HR MAX TEMP:  57; 6HR PCP:  0.10;

$$

WIZ011>013-019>022-031-037>040-048>050-301900-
NORTHEAST WISCONSIN

CITY           SKY/WX    TMP DP  RH WIND       PRES   REMARKS
ANTIGO         CLOUDY    52  45  76 NE10      30.20R
SHAWANO        CLOUDY    57  46  65 NE12      30.18R
6HR MIN TEMP:  54; 6HR MAX TEMP:  58; 6HR PCP:  0.02;

OCONTO         CLOUDY    55  45  68 NE8       30.17S
6HR MIN TEMP:  50; 6HR MAX TEMP:  55; 6HR PCP:  0.03;

STURGEON BAY   CLOUDY    50  39  66 N21G26    30.20R
6HR MIN TEMP:  48; 6HR MAX TEMP:  52;

GREEN BAY      LGT RAIN  53  47  79 N10       30.17S
6HR MIN TEMP:  52; 6HR MAX TEMP:  53; 6HR PCP:  0.16;

MANITOWOC      LGT RAIN  49  46  90 MISG      30.17R
6HR MIN TEMP:  48; 6HR MAX TEMP:  52;

APPLETON       LGT RAIN  50  48  93 NE17      30.17R
CLINTONVILLE   CLOUDY    54  45  71 NE8       30.16S
OSHKOSH        LGT RAIN  51  46  83 NE17G25   30.16R
6HR MIN TEMP:  51; 6HR MAX TEMP:  56; 6HR PCP:  0.36;

$$

WIZ032>034-041-042-053>061-301900-
SOUTHWEST WISCONSIN

CITY           SKY/WX    TMP DP  RH WIND       PRES   REMARKS
LA CROSSE      CLOUDY    59  50  72 N12       30.16R
6HR MIN TEMP:  56; 6HR MAX TEMP:  59;

SPARTA         CLOUDY    55  53  94 NE9       30.17R
6HR MIN TEMP:  53; 6HR MAX TEMP:  55; 6HR PCP:  0.01;

VIROQUA        CLOUDY    58  54  86 NE13      30.15R
6HR MIN TEMP:  54; 6HR MAX TEMP:  58; 6HR PCP:  0.01;

BOSCOBEL       CLOUDY    60  52  74 NE9G21    30.13R
6HR MIN TEMP:  58; 6HR MAX TEMP:  62; 6HR PCP:  0.12;

PRAIRIE DU CHI DRIZZLE   57  53  87 NE9       30.12R
6HR MIN TEMP:  56; 6HR MAX TEMP:  61; 6HR PCP:  0.01;

PLATTEVILLE    CLOUDY    56  54  95 NE17G25   30.09R
6HR MIN TEMP:  56; 6HR MAX TEMP:  65; 6HR PCP:  0.03;

$$

WIZ056-057-062-063-064-067-068-301900-
SOUTH CENTRAL WISCONSIN

CITY           SKY/WX    TMP DP  RH WIND       PRES   REMARKS
REEDSBURG      DRIZZLE   52  51  96 E10       30.15R
6HR MIN TEMP:  52; 6HR MAX TEMP:  59; 6HR PCP:  0.18;

BARABOO/DELLS  DRIZZLE   52  49  90 NE9       30.15R
6HR MIN TEMP:  51; 6HR MAX TEMP:  58; 6HR PCP:  0.21;

LONE ROCK      LGT RAIN  57  53  86 NE10      30.14R
6HR MIN TEMP:  55; 6HR MAX TEMP:  63; 6HR PCP:  0.16;

MINERAL POINT  LGT RAIN  55  54  94 NE12G21   30.10R
MADISON        DRIZZLE   53  49  86 NE17      30.12R
6HR MIN TEMP:  53; 6HR MAX TEMP:  67; 6HR PCP:  0.15;

MIDDLETON      CLOUDY    54  52  94 NE15      30.13R
6HR MIN TEMP:  54; 6HR MAX TEMP:  67; 6HR PCP:  0.15;

WATERTOWN      LGT RAIN N/A N/A N/A NE13G20   30.13R
MONROE         LGT RAIN  52  52 100 NE23      30.08R
JANESVILLE     LGT RAIN  54  52  94 NE15      30.09R FOG
$$

WIZ051-052-058>065-066-070>072-301900-
SOUTHEAST WISCONSIN

CITY           SKY/WX    TMP DP  RH WIND       PRES   REMARKS
MILWAUKEE      LGT RAIN  47  44  90 N22G37    30.11R FOG
6HR MIN TEMP:  47; 6HR MAX TEMP:  51; 6HR PCP:  0.13;

WAUKESHA       RAIN      48  48 100 NE17G29   30.13R
MILWAUKEE/TIMM LGT RAIN  48  45  87 N22       30.12R
RACINE         RAIN      47  44  90 N25G36    30.10R FOG
6HR MIN TEMP:  47; 6HR MAX TEMP:  57; 6HR PCP:  0.21;

BURLINGTON     RAIN      48  46  95 N17G23    30.10R
6HR MIN TEMP:  48; 6HR MAX TEMP:  64; 6HR PCP:  0.20;

KENOSHA        LGT RAIN  49  47  93 N18G28    30.08S
6HR MIN TEMP:  49; 6HR MAX TEMP:  67; 6HR PCP:  0.31;

FOND DU LAC    LGT RAIN  51  46  83 NE18G25   30.16R
6HR MIN TEMP:  51; 6HR MAX TEMP:  57; 6HR PCP:  0.31;

SHEBOYGAN      LGT RAIN  48  45  89 NE14      30.15R
6HR MIN TEMP:  48; 6HR MAX TEMP:  52; 6HR PCP:  0.22;

WEST BEND      RAIN      46  45  93 NE12G22   30.14R
JUNEAU         LGT RAIN  50  48  95 NE10G16   30.15R
6HR MIN TEMP:  49; 6HR MAX TEMP:  64; 6HR PCP:  0.32;

$$

LSZ147-162-301900-
LAKE SUPERIOR

STATION/POSITION TIME  TEMP    WIND        PRES    WAVE
                       AIR SEA DIR/SP/G            HT/PER
                 (UTC) (F)     (DEG/KT/KT) (MB)    (FT/S)
W MID LAKE BUOY  1750   38 37   60/  8/  8   N/A     2/ 4
DEVILS ISLAND    1800   43      80/  6/  6   N/A
PORT WING        1700   47      40/ 14/ 16   N/A
SAXON HARBOR     1640   44      50/ 11/ 13   N/A
$$

LMZ867-665-643>646-301900-
LAKE MICHIGAN

STATION/POSITION TIME  TEMP    WIND        PRES    WAVE
                       AIR SEA DIR/SP/G            HT/PER
                 (UTC) (F)     (DEG/KT/KT) (MB)    (FT/S)
CHAMBERS ISLAND  1700   51     350/ 19/ 21   N/A



USA.gov is the U.S. government's official web portal to all federal, state and local government web resources and services.